CAPE
2493 1862 2570 2138 2040 1818 1840 2289 1855 1985 1935 1867 1846 2220 1962 1839 1810 2187 2549 2080 1741 1600 1988 1965 2056 1746 1844 1816 1870 2237 2450 2396 2514 2756 2664 2549 2460 2612 2578 2688 2717 2870 2739 2657 2643 2784 2774 2684 2801 2618 2462 2245 2520 2456 2630 2458 2377 2397 2760 2762 2850 2981 3040 3005 2992 2945 2982 3179 3180 3092 3211 3114 2778 2959 3147 3176 3430 3677 3699 3505 3138 2760 2993 3667 3659
2002 2300 2500 2822 1880 1810 2096 2187 2056 1977 1858 2064 2126 2249 2098 2591 2559 2524 2560 2413 1878 1669 1969 1952 1753 1782 1878 1986 1957 2394 2340 2248 2535 2626 2514 2261 2563 2636 2894 2840 2738 2437 2558 2600 2597 2570 2562 2504 2772 2243 2095 2091 2412 2442 2649 2711 2644 2867 2947 2855 3113 3184 3114 3076 3078 3139 3209 3133 3118 3173 3218 3190 3200 3262 3047 3263 3358 3464 3487 2996 2772 2834 2594 3644 3549
2299 2648 2682 2644 2132 1820 1829 2029 2299 2015 1923 2320 2216 2363 2449 2716 2557 2416 2487 2436 1700 1573 1547 1381 1702 1982 2198 2338 1892 2500 2488 2529 2621 2156 2592 2658 2648 2722 2845 2762 2716 2620 2712 2455 2635 2602 2243 2577 2767 2606 2482 2514 2562 2545 2677 2765 3003 2870 2480 2503 2729 2896 2999 3191 3139 3071 3027 3035 2750 3283 3477 3374 3282 2996 3011 3430 3456 3391 3432 3232 3097 2942 3456 3694 3606
2315 2470 2568 2369 2197 2082 2128 2020 2392 2381 2474 2061 2168 2157 2340 2389 2412 2382 2377 2201 2098 2203 1790 1853 1850 1973 2153 2307 2332 2197 2267 2518 2543 2454 2757 2842 2623 2542 2578 2717 2765 2754 2763 2750 2712 2590 2596 2848 2697 2776 2586 2602 2284 2524 2479 2488 2839 2804 2873 2939 2976 2988 2892 3044 3183 3085 3124 3186 3515 3199 2658 3163 3274 3288 3299 3396 3476 3434 3614 3717 3793 3717 3640 3626 3673
2218 2190 2336 2378 2253 2153 2056 2193 2263 2472 2282 2265 2206 2111 2271 2323 2484 2263 2442 2324 2101 2170 2043 2146 2133 1943 2210 2226 2371 2422 2386 2438 2352 2519 2438 2714 2656 2650 2764 2719 2732 2739 2753 2840 2750 2605 2388 2585 2415 2467 2360 2386 2518 2787 2773 2726 2973 2951 2853 2744 2941 3165 3236 3294 3372 3436 3104 3079 2836 3074 3793 3451 3119 3326 3247 3327 3453 3579 3714 3665 3677 3651 3589 3453 3380
2263 2283 2368 2498 2143 2076 2009 1897 2154 2134 2090 2183 2105 1978 2103 2557 2365 2357 2372 2217 2241 2481 2112 2338 1952 1962 2182 2209 2474 2459 2618 2388 2460 2448 2281 2342 2654 2567 2607 2635 2659 2725 2885 2887 2890 2769 2564 2438 2560 1966 2040 2498 2752 2707 2563 2697 2828 2814 2740 2971 3034 3119 3228 3461 3657 3853 3893 3696 3249 3632 3792 3317 3065 3261 3330 3523 3567 3498 3382 3384 3366 3507 3382 3258 3373
2086 2388 2484 2588 2428 2294 1862 1778 1882 2077 2038 2130 2110 2091 1908 2100 2154 2204 2166 2268 2288 2062 2203 2072 2018 1793 1819 1874 1973 2306 2485 2540 2340 2277 2372 2382 2654 2633 2615 2677 2501 2768 2856 2800 2755 2808 2768 2673 2473 2666 2547 2474 2465 2654 2616 2360 2604 2596 2572 2588 2658 3016 3260 3574 3759 3755 3709 3741 3388 3618 3403 3040 2932 3082 3206 3188 3123 3195 3255 3282 3402 3467 3388 3444 3142
2312 2374 2402 2406 2374 2094 1646 1497 1482 1873 2024 2161 2127 2126 2056 2088 2084 2021 2126 2275 2251 2292 2215 2140 1767 1489 1765 1709 2050 2493 2571 2637 2651 2445 2218 2304 2590 2616 2634 2747 2371 2764 2788 2777 2710 2545 2618 2679 2659 2730 2370 2736 2880 2688 2999 3047 3145 3102 3176 3309 3316 3241 3256 3498 3529 3569 3509 2763 3122 2739 2434 2666 2806 2874 3153 3036 3120 3178 3209 3273 3226 3070 2972 2938 3230
2390 2344 2474 2355 2278 1868 1628 1422 1518 1851 2280 2393 2213 2057 2149 2044 2022 2012 2144 2184 2309 2369 2429 2252 1896 1786 1856 1882 2341 2465 2636 2665 2517 2413 2391 2409 2346 2699 2758 2647 2495 2766 2972 2808 2763 2858 2923 2887 2723 2751 2698 2485 2866 2868 2995 3023 3180 3166 3188 3218 3232 3359 3532 3529 3572 3155 2342 1889 2029 2345 2254 1984 1891 2443 3164 3174 3245 2797 2708 2673 2952 2649 2662 2892 2823
1940 2124 2358 2722 2463 2017 1536 1604 1845 2301 2624 2306 2074 2046 2116 2056 1911 1986 2203 2277 2453 2416 2505 2512 2072 2040 2326 2561 2390 2385 2624 2330 2474 2585 2306 2314 2361 2686 2549 2631 2783 2961 2902 2771 2906 2919 3065 2957 2665 2838 2766 2701 2384 2961 3025 3047 3065 3165 3143 3347 3288 3095 3217 3158 2766 2252 1483 1697 1740 1782 2890 5096 1769 1888 2933 2940 2826 2541 2873 2598 3794 3313 2792 2481 2671
2093 2008 2167 2438 2108 1651 1811 2043 2335 2694 2466 2312 2048 2087 2127 2104 2068 2248 2104 2281 2242 2219 2331 2552 2342 2143 2496 2666 2608 2615 2353 2227 2176 2243 2332 2272 2403 2193 2111 2607 2761 2949 2995 2894 2959 2893 2874 3003 2823 2834 2637 2803 2693 3099 3048 3050 3084 3125 3141 3315 3357 3156 2622 2471 2587 897 1306 1347 1211 1132 1315 2730 1725 2543 2743 2647 2707 2500 2347 2549 2604 2519 2516 2394 2466
2228 2104 1818 2436 1977 1703 1950 2173 2582 2652 2462 2216 2173 2114 1991 1819 2024 2097 2268 2068 1927 1631 1985 2608 2527 2437 2672 2603 2624 2424 1997 2434 2327 2267 2388 2418 2242 2162 2297 2542 2720 2936 2795 2531 2955 2929 2896 2863 3044 2850 2728 2889 2943 2878 2866 2789 2723 2937 3439 3489 3508 3411 2914 2163 1681 1025 1738 1755 1827 1654 1346 1948 2215 2200 2619 2660 2742 2848 2922 2910 2949 2740 2736 2736 2847
2239 2057 2064 2396 2392 1686 2283 2393 2555 2538 2420 2437 2302 2379 2040 1688 1686 1732 1852 1678 1721 1768 1878 2334 2724 2476 2203 2463 2402 2300 2166 1939 2223 2146 2359 2129 2115 2179 2316 2414 2596 2740 2782 2801 3001 3001 2997 2899 2744 2639 2607 2704 2986 2696 2684 2636 2830 3134 3286 3713 3743 3767 3470 2471 1512 1916 1642 1789 1555 1813 1595 2027 3157 3101 2875 2726 2909 3065 3111 2985 2897 2817 2706 2863 2845
2100 2170 2110 2357 2611 2532 2390 2361 2416 2248 2208 2228 2112 2143 2110 1914 1784 1780 1539 1557 1687 1922 2165 2544 2470 2202 2230 2228 2139 1949 2391 2306 2254 2289 2167 2227 2084 1957 1960 2247 2425 2478 2708 2753 2907 2957 2998 2735 2715 2671 2757 2777 3102 2774 2801 2914 3070 3215 3378 3811 3889 3984 4068 3332 2346 1968 1750 1803 1917 1674 1816 2168 3298 3354 2826 3077 3229 3072 3054 2814 2809 2580 2580 2385 2516
1948 2130 2297 2276 2321 2308 2473 2168 2261 1969 1930 2044 1852 2051 1934 2183 1602 1586 1453 1606 1836 1902 1994 2343 2127 1846 1937 2160 1894 1950 2113 2442 2436 2243 2148 2133 2144 2136 2200 2410 2496 2556 2437 2378 2401 2667 2798 2743 2554 2570 2552 2591 2687 2791 2878 3039 3361 3318 3555 3930 3985 3953 3886 2544 1930 2104 2084 1885 1891 1880 1990 2403 3043 3338 3008 3045 2886 2875 2564 2410 2424 2183 2452 2366 2087
1602 1977 2346 2571 2885 2264 2733 2197 2036 2058 1596 1511 2049 1978 1974 1916 1746 1425 1467 1588 1951 1850 2215 2204 1884 1822 1702 1717 1822 1999 2333 2313 2156 1986 1876 1779 1881 2056 2216 2530 2792 2536 2366 2334 2471 2630 2930 2882 2943 2917 2873 2823 2834 2823 3076 3097 3424 3630 3611 3674 3925 4056 4097 3829 2137 2366 2304 2212 2092 1774 1866 2385 3030 3027 3389 3030 2927 2808 1887 2046 2182 1935 2063 2035 1991
1960 2272 2744 2625 2506 1988 2404 2231 1966 1852 1909 2132 2091 1822 1893 1818 1728 1442 1252 1747 1960 2026 2188 1860 1850 1930 1568 1520 1629 2080 2153 1997 2152 2053 1825 1881 1975 2017 2187 2458 2852 2681 2586 2833 2823 2714 2862 2884 3051 3118 3061 3171 3145 3097 3204 3343 3411 3586 3723 3598 3636 4110 4012 4104 2267 2250 2393 1915 1979 2172 2414 2447 2894 3186 3443 2790 2180 1986 1578 1465 1361 1308 1446 1517 1499
2158 2248 2414 2658 2473 2166 2323 2486 2322 2193 2103 1843 1672 1477 1572 1774 1613 1688 1652 1717 1800 2163 2096 2134 2224 2124 1874 1335 1411 1406 1710 1859 1929 1954 2032 1956 1887 2191 2389 2721 2766 2635 2630 2690 2817 2826 2877 2922 2859 2945 2944 2935 2996 3199 3266 3383 3522 3383 3683 3878 3578 3877 3742 4259 3013 2522 2567 2120 2631 2116 2602 3532 2939 3248 3054 2195 1858 1885 1511 1458 1552 1365 1483 1500 1372
1900 2176 2332 2460 1944 1695 2057 2072 2194 2585 2503 2036 1917 1545 1311 1732 1735 1728 1806 1703 1752 1793 2101 2104 1783 1765 1487 1458 1483 1528 1670 1571 1623 1992 1977 1976 1989 2284 2582 2867 3079 2933 2647 2684 2828 3018 2812 2961 3039 3050 2998 2912 3109 3647 3409 3376 3932 3590 3578 3662 3992 3644 4061 4155 2927 1956 2676 2879 2595 2734 3099 2986 2904 2972 2839 2617 2062 1650 1592 1706 1485 1299 1415 1510 1711
2199 2339 2475 2338 1998 1834 1591 1691 1809 2194 2126 2585 2188 1903 1754 1688 1734 1695 1503 1520 1780 2037 2004 2237 1778 1618 1533 1511 1543 1447 1526 1729 1880 1729 1840 2036 2164 2580 2767 2980 2933 2940 2844 2765 2882 2914 3067 3039 3310 3158 3344 3689 3286 3727 3629 3600 3727 4268 3615 3920 3329 4127 3390 2691 2529 2178 2284 2534 1655 2870 3139 2785 2798 2864 2886 2647 2266 1674 1651 1492 1519 1541 1654 1658 1919
2110 2276 2583 2252 1916 1704 1725 1787 1789 1782 2010 2310 2362 2038 1817 1730 1874 1579 1588 1708 1981 2090 2205 2268 2021 1748 1636 1427 1707 1634 1418 1475 1340 1752 1842 2218 2234 2714 2716 2832 2882 3038 3244 3349 3184 3152 3140 3280 3393 3703 3451 4178 4093 4053 3943 3945 3849 3475 4468 3311 3926 2818 1890 2260 2184 2106 2212 2516 2978 3267 2662 2860 2956 2819 2777 2558 2306 1842 1822 1905 1699 1811 1750 1733 2036
2003 2263 2372 2021 1769 1781 1889 1914 1684 1813 2173 2058 1807 1756 1823 1761 2396 2332 2240 2018 1944 2038 2555 2884 2912 2542 2032 1352 1821 1678 1326 1274 1584 2043 2402 2313 2514 2812 2751 2708 2789 2922 3405 3622 3650 3505 3373 3591 3301 3544 3547 3591 4248 2763 3790 3924 3693 3692 2975 3899 2352 2132 1865 2202 2162 2214 2137 2598 2722 3597 3060 2928 2945 2996 2728 2498 2377 2018 1911 1966 1911 2021 2116 2096 2220
2047 2117 2031 1832 1809 1727 1799 1916 1689 1489 1798 1906 1831 1834 1664 2122 2099 2017 1865 1928 1980 2749 3107 2954 2532 2126 1820 1632 1728 2305 1960 1445 2257 2222 2210 1723 2541 2970 3151 3243 3287 3472 3492 3185 3123 2842 2589 2788 2786 2282 2818 3284 2337 2262 1815 1988 2556 3526 3112 2392 2160 1894 2242 2177 2064 1940 2186 1710 3197 3202 3060 3129 3053 2860 2733 2474 2442 2428 2284 2150 2346 2290 2193 2342 2586
1929 1662 1610 1869 1735 1690 1296 1942 1804 1437 1451 1406 1591 1721 1497 1644 1996 1849 2022 2532 2610 2551 2804 3071 3333 2982 2131 2015 1867 2347 2990 3152 3144 2777 2864 2491 2532 3497 3478 2789 3001 2586 2467 3168 2423 2307 2195 2381 2510 3457 3468 2648 1856 1629 1678 1703 1760 2012 2032 1942 1903 1946 2046 1944 2084 1977 2100 1777 3363 3143 2966 3290 3085 2903 2645 2649 2543 2559 2434 2327 2405 2668 2634 2507 2515
1790 1898 1834 1607 1716 1752 1557 1370 1879 1906 2035 1642 1598 1668 1581 1465 1823 2013 2022 2292 2387 2225 2563 3139 3556 3586 3271 2739 2354 2474 2687 2351 1851 1519 1102 965 952 937 1363 1834 1743 1845 1515 1937 1858 2228 3188 2572 2758 4093 2546 2008 2055 2137 1514 1852 1916 1854 1936 2067 1744 2025 1999 1824 1862 1852 1801 2463 3988 3225 2974 3130 3200 2902 2710 2733 2791 2778 2778 2724 2761 2857 2859 3015 3186
1877 1884 1831 1325 1739 1600 1754 2039 2127 2176 2094 1844 2093 1950 2087 2166 2265 2280 2121 1998 2178 2466 2595 3029 3058 2876 2321 2120 1998 1914 1333 1200 1353 1176 1250 1197 1050 1198 1089 1129 1464 1579 2411 2712 2814 2616 2761 2508 2444 2544 2231 2166 1922 1931 1995 1939 2068 1866 1972 2001 2024 2149 1810 1538 1492 1811 1955 2556 4178 2926 3018 3126 3152 3043 2807 2855 2924 2909 3065 3095 3080 3160 3226 3300 3467
1749 1850 1842 1836 1667 1758 2034 2141 2091 2173 1946 1896 2108 2277 2384 2420 2594 2467 2287 2355 2306 2368 2579 2850 2592 2382 2274 1952 1430 1021 729 782 1062 1234 1094 1163 1149 1137 1213 1670 2140 2617 2904 2768 2838 2833 2975 2778 2805 2662 2151 2120 1802 1990 2158 2016 2076 1750 1734 1700 1603 1667 1695 1248 1449 1690 1906 2308 3943 2820 2900 3070 3130 3005 2994 3000 2986 3138 3255 3340 3355 3452 3555 3646 3852
1875 1869 1795 1856 1984 1798 2171 1970 1988 2098 2033 1873 2023 2318 2503 2286 2222 2248 2298 2253 2510 2528 2467 2393 2243 2299 2202 2039 1360 711 467 464 841 943 1096 1127 1309 1435 2078 2352 2653 2639 2758 2842 2807 2930 2818 2868 2676 2600 2266 2018 1847 1809 1691 1860 1934 1879 1483 1428 1517 1352 1440 1239 1145 1663 1829 1995 2904 3752 3208 2946 3042 2983 3004 3033 3250 3405 3498 3565 3654 3679 3656 3786 3928
1643 1700 1721 1695 1741 1923 2067 1885 2175 2412 2055 2011 1851 2169 2211 2086 1985 2036 2130 2270 2611 2439 2412 2060 2000 1998 2191 1799 1246 516 316 366 693 899 1579 1599 1952 2433 2588 2676 2768 2652 2869 2703 2784 3066 2919 2756 2780 2976 2067 2083 1779 1708 1604 1608 1594 1496 1338 925 1038 1039 1433 1373 1421 1427 1646 1880 2164 3709 3153 2943 2932 2956 3011 3202 3495 3705 3760 3844 3939 4029 4094 4172 4270
1675 1675 1656 1755 1855 1957 1876 1832 2074 2228 2223 2121 2011 2223 2001 2084 2036 2188 2128 2441 2509 2391 1930 1599 1740 1748 1576 1837 1467 385 472 665 941 1410 1803 2239 2746 2774 2844 2706 2681 2863 2962 2890 2949 2933 2879 2850 2681 2588 2116 2062 1703 1191 1699 1170 1187 974 1326 928 1120 992 1199 1523 1549 1547 1540 1635 1756 2979 2473 3262 2990 3033 3037 3278 3575 3890 4028 4197 4205 4283 4416 4569 4746
1687 1657 1723 1873 1986 1784 1556 1632 1793 1831 1502 1473 2353 2401 2399 2556 2617 2532 1922 2121 2307 2074 1728 1702 1523 1530 1728 2451 2248 2259 706 933 1260 1751 2027 2734 2886 3102 2746 2868 2908 3066 3188 3003 2921 2940 2992 2697 2350 2456 2158 2020 1692 1273 1544 1132 992 711 982 936 946 1123 1319 1369 1317 1202 1158 1262 1686 1883 4285 2503 3008 3085 3448 3551 3693 3945 4148 4323 4354 4507 4685 4814 4977
1566 1526 1722 1929 1853 1681 1545 1684 1763 1630 1463 1498 2010 2461 2563 2632 2874 2110 1859 1921 2179 1648 1581 1620 1572 1416 1245 1823 2062 1990 2467 2013 2506 2349 2640 3007 2890 2826 2944 3123 3142 3285 3222 3121 3039 2872 3013 2839 2666 3166 2967 2141 1315 1033 993 568 796 642 842 903 978 1028 1124 1261 1134 887 1126 1260 1542 1776 1769 2768 3440 3166 3444 3891 4220 4194 4285 4262 4398 4634 4720 4870 4809
1590 1516 1805 1795 1716 1623 1540 1693 1721 1605 1640 1558 1711 1961 2321 2027 1909 1543 1590 1550 1547 1295 1276 1287 1346 1411 1888 1979 2380 2664 3089 2389 2996 3319 2877 2930 2987 3040 2918 3162 3290 3407 3266 3196 3010 3060 2813 2612 2343 2395 1863 1233 828 528 389 362 626 797 701 649 826 916 979 1204 1060 1068 1060 1127 1354 1375 1489 1627 2090 4281 3279 4074 4296 4592 4677 4717 4802 4842 4927 4981 5021
1659 1731 1685 1784 1742 1650 1568 1643 1683 1593 1690 1660 1486 1681 1664 1505 1196 1085 1321 1148 1115 1285 1147 1096 1105 1215 1542 2382 2290 2693 2864 2977 3102 3308 3480 2659 2769 3084 3103 3096 3368 3321 3248 3189 3173 2710 2662 2566 2211 2028 1718 1122 740 780 563 425 361 567 630 549 654 825 791 806 969 942 896 1003 1015 1124 1334 1516 1966 2148 2804 4376 4000 4544 4763 4986 5104 5227 5240 5298 5283
1646 1643 1635 1902 1697 1743 1702 1649 1616 1726 1693 1662 1636 1585 1602 1264 1246 1099 1175 1358 958 837 646 778 791 992 1239 1931 2224 2540 3027 3382 3595 3700 2920 2907 2337 2702 3011 3159 3462 3683 3179 3104 3295 2824 2638 2472 2073 2160 2086 1264 994 812 750 643 608 679 866 766 801 776 824 799 741 782 789 946 1034 1081 1256 1404 1438 1614 1801 1916 5248 3700 4000 4772 4781 4952 4924 5132 5145
1647 1711 1736 1752 1658 1730 1803 1715 1621 1594 1668 1568 1464 1467 1427 1363 1245 1188 1222 1349 924 674 533 462 846 1131 1058 1059 2331 2698 3042 3813 3798 3748 2869 2593 2420 2533 3028 3492 3600 3509 3216 3067 3235 2908 2537 2350 2236 2248 2341 1843 1076 881 905 831 837 797 796 823 806 807 958 936 942 864 858 853 934 1023 1086 1358 1759 1913 2150 1916 2133 1881 4057 4108 3960 4261 4241 4137 4180
1687 1661 1609 1829 1815 1879 1864 1709 1675 1518 1466 1363 1612 1839 1706 1644 1327 1055 876 1164 895 738 1104 1302 1161 1254 1294 601 1730 2479 3152 3701 3772 3997 3215 2549 2392 2499 2803 3198 3478 3522 3325 3218 3072 2811 3019 2216 2476 2354 2382 2416 1240 739 804 867 774 728 760 688 737 783 876 933 912 871 810 906 981 1040 1085 1274 1114 1880 2718 2307 1817 1829 3282 3602 4371 3814 3783 3706 3733
1813 1696 1669 1519 1636 1475 1757 1799 1743 1507 1605 1562 1689 1736 1777 1738 1328 1017 1171 1404 1250 1468 1596 1498 1433 1530 1290 1575 2177 2565 3020 3426 3965 3728 3561 2493 2725 2938 3128 3239 3486 3649 3361 3154 3241 2884 2867 2454 2579 2473 2656 2240 1529 992 817 689 398 394 535 564 696 713 832 839 898 836 844 838 826 907 974 1043 1218 1421 1633 1515 1386 1852 2046 3144 2973 3091 3593 3904 4023
1741 1745 1759 1643 1622 1584 2079 1909 1762 1556 1587 1728 1872 1775 1618 1699 1338 1350 1653 1816 2032 1820 1559 1631 1726 1489 1411 1927 2802 2416 2843 3408 3760 3581 3286 2464 2749 3090 3308 3150 3574 3373 3281 3234 3065 3102 3187 2625 2728 2691 2906 2168 2018 1374 1178 716 482 478 486 409 572 722 722 712 700 668 750 670 657 664 950 1238 1413 1848 1982 1812 1791 1861 1913 2614 2389 1453 3574 3249 4279
1840 1970 2092 1748 1670 1874 2004 2101 1924 1634 1748 1918 1981 1762 1409 1538 1477 1748 1857 2304 2285 2398 2084 1850 1637 1514 1640 1782 2458 2334 2963 3392 3752 3762 3787 3469 3200 3045 3566 3470 3522 3632 3477 3383 3291 3253 2928 3017 2798 2320 2431 2239 2140 1526 1186 979 722 687 715 572 621 765 837 850 924 994 930 945 1066 1256 1331 1278 1686 1802 1734 1785 1613 1388 1598 2000 2468 2277 2069 2927 2897
2097 1985 2050 1844 1692 1806 1978 2099 1952 1799 1904 1960 2007 1612 1324 1448 1709 1588 1891 2042 2354 2317 2211 2032 1689 1697 1384 1635 2338 2545 3704 3642 3926 3858 3468 3401 3609 3683 3668 3578 3606 3657 3676 3687 3445 3314 3102 2742 2606 3102 2258 2362 2032 1684 1607 1046 1078 993 1062 897 736 830 766 903 876 972 1093 1304 1458 1621 1660 1494 1715 1795 1964 1834 1842 1880 1749 1706 1931 2028 2074 2531 3077
2113 2119 1967 1928 1738 1625 1849 2044 1963 1962 1914 1888 1929 1650 1522 1482 1506 1637 1665 1681 2250 2196 2196 2185 1929 1936 2437 2768 2450 2533 3632 4092 3866 3997 3807 3649 3532 3199 3388 3936 3817 3858 3511 3223 3515 3127 3125 2908 2419 2501 2280 1747 2319 1718 1941 1281 2057 1106 1021 1108 972 1001 1020 860 987 1059 1118 1112 1338 1566 1579 1512 1692 1747 1924 2000 2286 2122 2088 2136 2121 2111 2542 2663 2299
2025 1909 1991 1970 1687 1922 1966 2128 2036 2095 2024 1975 1942 1876 1674 1596 1686 1616 1900 1791 1890 1900 1856 1907 2104 1920 2267 2572 2623 3270 3711 3579 3863 3605 3702 3377 3434 3666 3399 3539 3932 3773 3942 3551 3297 3501 3270 2903 2976 2238 2081 2185 2038 2065 2278 1561 1608 1409 1422 1140 1835 1059 1885 1854 1336 1492 1142 1307 1082 1571 1713 1555 1628 1894 2021 2231 2334 2505 2218 2275 2443 2622 2905 2927 2640
1858 1787 1863 1868 1557 2027 2245 2230 2253 2099 2100 2164 2171 2162 2052 2076 2221 2059 2065 1670 1661 2090 2471 2404 2308 2300 2274 2467 2976 3395 3236 3346 3341 3356 3380 3765 3796 3712 3270 3414 3485 3520 3533 3551 3392 3117 2992 2968 2879 2566 2248 2014 1914 2260 2145 2411 1613 1540 1969 1695 1364 900 1358 1878 1483 1697 1161 1760 905 1412 1472 1325 1603 2004 2095 2374 2153 2445 2685 2704 2410 2383 2899 3184 2957
1729 1700 1745 1625 1293 1852 2354 2550 2337 2011 2074 2449 2502 2257 2367 2567 2568 2447 2259 2369 2379 2058 1819 1753 1950 2377 2506 2525 2693 2891 2979 3419 3440 3786 3722 4289 4414 3926 3841 3540 3717 3342 3182 3340 3045 2849 2562 2949 2672 3003 2577 2100 2142 2035 2484 1938 2435 2016 1931 1496 1824 1702 1666 1601 1179 2160 1372 1348 1466 1220 1626 1562 1710 1892 2135 2227 2369 2432 2487 2468 2497 2385 2618 3044 3040
1816 1621 1556 1470 1174 1591 2066 2426 2164 2169 2032 2427 2526 2685 2503 2230 2102 1995 1897 1871 1968 1744 1634 1774 1759 2188 2192 2252 2592 2311 2700 3011 3496 3795 3648 4003 4128 4007 3694 3539 3530 3362 2841 3186 3011 2404 3120 2852 2918 2268 2899 2935 2332 1923 2113 2534 2090 2672 2212 2168 1729 1490 1859 1800 1736 2172 1973 1962 1261 1233 1547 1702 1684 1698 2215 2110 2094 2273 2565 2566 2523 2496 2392 2311 2424
1972 1575 1410 1454 1250 1360 1930 1941 2018 2082 2022 2421 2455 2678 2484 2238 2200 1775 1682 1636 1776 1674 1877 1576 1552 1708 1908 2564 2856 2847 2989 2947 3256 3607 3796 4161 4387 4401 4120 3333 3267 3217 3074 2890 2936 2461 2470 2413 2383 2447 2482 2505 3001 2523 1830 1621 2389 2448 2146 2100 2446 2079 1885 1804 1831 1486 1825 1342 1732 1717 1478 1628 1616 1624 1914 2254 1986 2351 2812 2403 2379 2051 2530 2519 2483
2054 1722 1396 1450 1531 1521 1785 1916 2057 2006 1880 2355 2625 2692 2518 2552 2401 1856 1844 1759 1360 1761 1800 2022 1792 2034 2484 2740 2718 2958 3023 2792 3228 3484 3968 3884 3917 4259 4156 3818 3628 3332 3081 2873 2594 2544 2712 2993 2542 2650 2479 3062 2827 2686 2244 1787 1694 2132 2162 1799 2007 2442 2277 1959 1956 1132 1052 1458 1706 1662 1777 1810 1688 1583 1870 2159 2141 2167 2512 2573 2097 2010 2368 2853 2824
1952 1939 1531 1473 1607 1866 1980 1924 2176 2296 2117 2390 2525 2669 2573 2661 2504 2017 2043 1831 1655 1747 2123 2314 2252 2256 2305 2558 2991 2978 3368 3488 3033 3580 3381 3244 3594 3928 4494 4302 3880 3628 3110 2496 2544 2594 2296 2589 3136 3021 3138 3205 2952 2772 2896 2970 1933 1878 2173 2952 1927 1356 1444 1860 1969 2074 2336 2293 1911 1852 1957 1716 1674 1615 1834 2474 2299 1991 2151 2296 2170 2378 2648 2939 3191
1875 1982 1770 1584 1645 1991 2287 2126 2397 2441 2404 2709 2770 2707 2730 2795 2545 2091 1968 1891 1741 2161 2393 2648 2797 3010 2424 2735 3127 3305 3086 3262 3395 3228 3717 3328 3149 3389 3900 3798 3574 2917 2841 2986 3184 2664 2521 2874 2720 2365 2419 2872 3142 2834 3264 3147 2770 2168 1780 2268 2544 2196 2074 2115 2125 2108 1928 2232 2300 2046 2026 1921 1932 1766 2117 2094 1827 2150 2183 2230 2287 2362 2371 2954 3072
1813 1978 1973 1753 1705 1999 2314 2464 2589 2241 2336 2802 2769 2906 2699 2649 2400 2236 2137 1953 1845 2318 2459 2533 2844 2963 2670 2575 3049 3184 3080 3149 3011 3296 2918 2845 2574 2740 2809 2990 2950 3215 2798 2805 2600 2223 2529 2683 2435 2654 2892 3069 2923 3339 2784 2550 2473 2856 2332 2657 2588 1730 2021 2362 2318 2544 2324 2079 2201 2062 1882 2052 1928 1808 2109 1995 1796 2170 2049 2370 2242 2208 2610 2899 2966
Wind_Speed
7 7 4 3 3 4 6 8 11 11 12 12 10 9 7 7 4 8 10 11 14 17 19 20 20 21 17 14 9 5 2 3 2 1 0 2 4 6 8 8 8 8 9 10 12 11 10 11 12 15 14 12 11 11 11 10 10 8 7 6 5 5 4 4 4 5 5 4 3 3 2 2 2 3 4 5 6 6 6 6 6 4 3 5 6
5 4 4 5 5 4 6 9 10 9 12 12 13 11 6 7 7 9 10 12 16 20 18 15 16 19 16 12 9 5 3 2 3 1 3 3 4 6 7 7 8 8 9 10 11 11 12 10 11 13 12 9 6 9 9 9 8 7 6 6 5 4 3 3 3 3 3 3 2 2 2 2 3 3 4 5 5 5 3 4 4 4 1 5 5
4 5 7 8 6 6 7 9 10 11 12 14 13 12 10 10 9 9 10 12 20 21 16 13 14 15 13 10 8 7 5 4 2 4 4 4 5 5 6 7 8 8 10 10 10 14 13 10 9 11 11 9 8 7 8 9 7 6 5 5 4 3 2 2 2 2 2 2 2 2 3 4 3 4 5 6 6 4 2 1 2 2 2 4 4
4 6 7 7 5 5 8 8 9 12 13 12 13 12 11 11 11 10 11 15 17 19 13 11 12 13 11 9 8 8 6 5 5 6 7 7 5 5 6 8 8 9 10 10 11 12 13 13 10 10 10 9 7 4 7 8 6 5 4 3 1 0 1 0 1 1 1 2 4 4 2 3 5 6 7 7 6 3 2 3 4 5 4 3 4
3 5 5 3 4 6 7 8 8 7 10 10 11 11 11 11 12 13 13 13 15 14 12 13 13 8 8 9 8 7 7 6 6 7 9 9 7 6 7 8 9 10 11 10 10 13 14 13 11 9 9 9 7 6 6 6 6 4 4 2 1 1 1 1 1 1 1 2 3 6 2 4 5 8 7 6 4 3 2 3 4 4 5 5 5
2 3 2 2 3 5 5 6 7 6 9 10 10 11 10 9 12 14 13 12 14 14 10 13 13 8 7 8 7 7 6 5 7 7 10 11 9 7 7 8 9 11 11 9 9 11 12 10 11 10 8 6 3 5 6 6 5 4 3 4 4 2 2 1 1 2 3 4 8 4 2 3 5 5 5 3 2 1 2 3 3 4 5 6 6
1 2 1 2 3 4 3 4 4 5 7 9 9 9 8 8 13 13 9 11 12 12 9 9 11 7 6 8 5 6 6 5 7 8 10 12 10 7 6 7 9 11 10 9 10 9 10 9 12 10 9 7 5 5 6 6 5 5 5 4 3 3 2 1 2 3 3 8 3 2 1 3 3 2 3 1 0 1 2 3 4 4 4 5 5
2 3 2 2 1 2 0 1 0 2 4 8 9 8 8 8 10 11 8 9 9 8 8 11 11 7 6 7 2 3 5 7 8 9 10 11 10 7 6 7 10 10 10 9 9 10 10 11 11 9 9 8 5 6 6 6 6 7 7 7 6 4 3 2 2 5 10 5 3 2 2 2 1 2 0 0 0 2 3 3 3 3 2 0 5
2 2 2 1 1 2 3 4 3 2 3 9 9 8 8 8 9 11 8 8 8 9 8 9 13 9 8 6 4 4 6 8 9 10 10 10 9 7 5 7 10 11 11 10 9 9 9 9 8 8 8 6 5 5 7 6 7 7 7 6 6 5 4 3 4 7 6 4 3 3 3 3 4 3 1 1 2 3 4 4 5 4 1 1 7
0 4 4 3 1 2 3 4 4 2 8 8 8 9 9 9 9 12 10 9 8 7 8 8 11 13 9 9 9 7 8 9 10 10 9 10 10 8 7 8 10 11 11 10 7 7 6 6 5 5 7 7 5 6 7 8 8 8 7 6 5 5 5 6 8 12 7 4 4 6 10 18 5 3 2 0 1 1 3 10 12 9 6 4 10
3 2 4 3 1 3 4 2 2 5 7 7 7 9 10 10 10 12 10 9 7 7 8 7 8 11 11 12 10 9 9 8 10 9 9 11 11 10 9 9 9 10 10 9 7 6 6 6 6 8 8 8 7 7 7 8 8 8 6 5 4 5 6 8 16 5 5 6 5 6 6 15 5 3 1 1 1 1 2 4 5 4 4 4 6
2 1 1 2 1 3 3 4 3 6 8 8 8 10 11 12 13 10 9 9 8 9 8 8 9 13 12 13 12 10 8 7 9 10 10 12 12 10 9 9 9 10 10 9 8 8 8 8 8 9 10 11 9 8 9 9 9 8 7 5 5 5 7 11 12 4 6 8 7 7 6 6 3 4 2 2 3 2 2 4 5 6 5 6 7
3 1 1 1 0 1 3 0 5 6 8 9 9 12 12 12 13 7 8 10 10 9 7 8 11 12 13 13 12 11 8 7 9 11 10 10 10 9 7 7 10 11 10 9 9 10 11 11 10 10 10 11 12 10 10 10 10 10 9 7 6 7 9 14 8 9 7 7 8 9 5 6 6 4 1 2 2 3 3 5 6 6 6 6 6
6 3 1 0 2 4 3 5 8 8 9 10 11 14 14 15 14 8 8 11 10 8 8 9 11 13 13 12 12 11 8 6 7 9 8 7 7 6 7 9 8 8 8 11 12 13 12 10 9 9 10 11 12 12 11 11 11 10 9 8 7 9 11 14 14 7 8 7 9 8 6 6 5 5 1 2 4 5 6 6 7 7 6 7 7
8 8 4 3 4 6 7 6 8 8 9 10 12 13 15 16 16 11 9 9 10 10 8 11 11 12 12 13 13 12 9 6 5 6 4 4 5 5 4 4 6 6 7 12 16 14 12 9 8 9 10 11 11 11 11 11 11 10 10 8 8 10 12 15 11 9 8 8 5 8 2 2 6 4 4 5 6 6 7 7 7 8 8 7 6
10 10 8 6 6 6 5 5 6 9 8 8 11 13 15 18 18 13 8 10 10 9 8 10 10 10 12 12 12 12 9 7 4 3 3 4 5 6 8 7 8 7 6 8 11 12 12 10 9 9 10 10 11 11 11 11 11 11 10 10 9 10 14 20 11 11 7 7 3 5 3 3 6 4 4 6 5 6 6 7 8 6 7 7 6
10 10 9 7 7 7 4 2 5 7 10 9 12 14 15 17 20 15 11 10 10 10 10 9 9 10 12 12 11 11 9 6 2 3 5 8 9 11 13 16 13 11 12 12 12 12 12 11 10 10 10 10 11 11 11 11 11 11 12 13 13 10 14 18 12 10 8 5 8 4 2 3 7 5 4 6 7 7 6 6 6 7 7 5 6
10 9 9 8 5 7 5 4 3 4 7 9 12 14 14 16 17 16 15 12 10 10 11 12 12 12 12 11 7 7 7 7 6 7 6 9 13 15 19 15 15 15 14 13 12 11 11 11 12 12 12 11 11 11 11 12 12 13 13 15 15 14 14 16 12 10 6 6 7 2 3 9 10 5 4 5 6 7 6 6 6 6 6 5 6
9 9 10 8 6 3 5 5 4 3 4 6 9 12 13 16 15 15 14 11 7 8 8 10 12 11 10 9 6 6 7 6 9 10 9 11 14 19 17 15 16 16 14 13 11 11 10 11 12 13 12 12 11 11 12 12 13 15 15 16 16 15 17 15 13 9 7 7 5 5 3 9 7 6 5 4 4 5 6 5 5 5 4 4 3
9 9 10 9 7 3 1 3 3 1 3 5 8 9 14 15 14 14 14 8 6 8 9 11 11 11 7 7 7 6 9 9 10 12 14 16 18 16 12 12 13 12 12 11 10 10 11 11 12 13 12 12 12 13 14 14 14 15 16 15 16 16 16 12 11 9 9 7 8 5 7 6 7 6 5 5 5 5 4 4 4 3 2 3 3
8 10 10 9 8 5 4 1 1 1 2 4 6 8 11 11 12 12 12 9 7 7 8 9 7 6 2 5 5 10 14 18 19 17 16 18 20 15 13 12 11 11 11 11 11 11 12 12 12 13 13 13 13 16 17 16 16 16 15 15 17 16 12 11 12 9 9 7 6 1 7 7 7 7 6 5 4 3 3 3 3 3 3 4 3
9 9 10 10 8 5 5 4 3 4 2 3 2 5 6 6 8 7 6 5 4 3 2 4 2 4 1 3 7 8 12 21 23 20 17 17 18 16 13 14 13 13 13 13 14 14 15 14 14 14 15 15 16 17 15 17 17 14 15 17 17 10 11 12 11 10 10 5 6 4 6 7 8 8 7 5 4 3 2 3 2 2 2 2 3
9 9 9 10 8 5 3 5 6 3 2 5 4 3 4 4 5 4 4 3 3 4 5 4 2 2 4 9 11 9 9 20 23 19 19 19 17 15 15 15 15 15 16 16 16 16 16 17 16 16 16 18 18 15 15 13 10 15 15 16 13 10 12 12 11 9 8 6 4 5 5 7 8 8 7 5 4 3 3 3 3 3 3 4 5
8 9 9 8 8 5 4 6 7 2 2 4 5 5 6 6 6 5 5 6 6 8 9 8 8 4 1 9 13 10 9 15 17 18 19 18 17 17 17 17 17 18 19 20 17 16 17 18 16 16 18 15 14 15 12 11 11 11 10 11 10 11 12 11 11 8 8 6 3 3 4 6 8 8 7 6 5 5 4 4 5 5 5 5 5
7 7 9 10 9 7 6 6 6 3 3 4 6 7 6 8 8 8 8 9 10 11 10 10 9 9 8 9 8 12 12 15 18 20 22 21 20 18 17 17 16 15 19 17 16 11 15 12 12 14 13 13 13 13 12 11 11 11 11 12 12 12 13 11 9 10 7 6 2 3 5 6 8 8 8 7 7 7 6 6 7 7 7 7 7
8 6 8 10 10 8 6 4 5 4 4 4 7 6 8 9 10 10 10 10 11 11 11 11 9 10 11 11 11 11 13 14 16 17 18 20 19 19 17 16 17 16 18 16 15 15 15 13 13 14 15 14 12 13 13 13 12 11 12 12 13 12 11 10 10 9 8 6 2 4 6 7 8 9 9 9 9 8 8 9 9 9 9 8 7
7 6 6 8 8 7 4 5 3 4 6 5 6 8 9 10 10 10 11 11 11 10 11 11 11 11 12 13 13 13 13 13 13 15 15 17 17 16 16 17 16 17 17 16 16 15 16 14 14 15 15 16 13 12 13 13 13 15 12 14 12 12 11 9 9 8 7 6 2 4 6 8 9 10 10 11 10 10 10 10 11 10 10 10 9
7 8 7 8 6 7 4 4 3 4 5 7 8 10 10 10 10 10 11 10 10 10 10 11 10 12 14 15 16 14 13 12 12 12 14 15 14 14 15 16 16 16 16 17 15 16 14 15 15 16 16 16 16 13 14 12 13 15 13 11 12 9 11 9 8 9 7 5 5 6 7 9 10 11 12 12 11 12 12 12 12 12 12 11 11
8 8 6 7 6 4 4 3 4 5 5 8 10 11 11 11 10 11 10 9 11 10 10 10 11 12 13 15 16 14 13 12 11 11 13 13 14 14 15 15 15 15 15 14 15 15 15 15 16 17 15 17 15 12 13 14 15 12 14 10 10 8 9 8 8 8 7 6 5 4 8 9 11 13 13 13 13 12 12 12 12 13 12 12 12
6 7 6 4 5 4 3 3 5 5 7 9 10 11 12 11 11 11 10 10 11 10 10 11 11 12 12 14 17 15 12 11 11 12 13 13 13 13 14 14 14 14 15 15 15 15 15 16 16 17 18 17 15 14 16 13 14 11 13 10 10 7 8 8 8 8 6 6 5 4 9 10 13 14 14 14 14 13 13 13 13 13 13 12 12
4 5 5 3 2 2 2 2 4 6 8 9 10 10 12 12 12 11 10 10 10 10 11 11 11 11 12 13 13 16 13 10 10 12 12 12 13 14 14 14 14 14 16 14 13 16 18 18 18 20 18 18 17 14 15 13 12 11 10 10 7 8 8 8 8 7 5 4 5 6 8 15 15 16 15 15 15 15 15 15 15 15 14 14 13
3 3 4 3 3 2 1 3 4 7 9 8 9 10 11 12 12 12 11 11 11 11 11 11 12 12 11 11 11 10 13 10 12 12 12 13 12 13 13 14 14 14 15 15 16 17 18 19 16 18 18 18 14 14 15 11 11 9 9 7 7 8 7 8 9 4 6 4 6 8 9 10 17 17 18 17 18 18 17 18 18 17 17 16 16
2 2 3 2 3 2 1 3 4 6 9 8 9 10 11 11 11 12 12 12 12 13 11 11 11 10 10 9 8 9 10 9 10 12 12 12 12 13 12 14 14 15 15 17 17 17 17 17 16 16 17 15 13 12 12 10 10 10 8 5 7 8 7 7 6 6 5 6 7 8 9 9 10 18 19 19 21 20 20 21 20 20 19 19 19
3 2 1 2 2 1 2 4 4 6 8 8 10 10 11 11 12 12 12 13 12 12 11 10 9 8 7 8 7 8 9 10 11 11 14 11 12 13 14 14 14 15 14 16 17 16 17 19 19 17 15 14 11 11 11 10 8 8 8 6 8 7 7 6 7 5 6 8 7 8 10 10 10 10 13 22 21 21 22 22 22 21 21 21 21
3 2 1 2 2 1 2 3 4 4 7 8 9 10 11 12 13 13 12 13 11 9 9 8 7 6 6 6 8 8 10 11 13 13 13 14 13 14 15 15 17 17 16 15 18 16 17 18 17 18 16 12 10 11 9 8 8 8 9 8 7 6 7 6 6 7 8 8 8 10 10 11 10 10 11 9 19 23 22 21 21 21 21 21 20
3 3 3 1 2 2 1 2 2 4 6 7 10 11 12 13 12 12 10 10 8 8 7 6 6 6 7 6 8 10 12 13 14 15 14 14 14 14 16 16 15 16 16 16 17 16 16 16 17 18 16 15 9 6 6 6 7 6 5 7 5 6 7 6 7 8 7 8 9 10 11 11 10 10 8 8 6 12 21 19 20 20 21 20 20
4 4 3 1 1 3 3 1 2 3 6 7 9 11 13 12 11 10 6 8 6 6 7 8 7 7 9 7 8 12 12 13 13 14 15 14 15 15 14 15 16 16 16 15 16 15 17 13 13 15 14 13 12 5 4 6 5 5 4 5 5 4 7 6 7 7 7 10 11 13 11 10 9 12 12 8 8 9 12 20 18 20 21 21 20
5 4 4 2 0 2 2 3 3 4 7 8 9 10 11 10 10 9 6 8 7 6 7 8 9 9 10 10 11 12 12 12 12 13 16 16 15 16 17 16 15 16 16 14 15 14 13 13 11 11 12 12 10 9 6 6 5 4 3 4 3 6 5 7 7 8 10 12 12 11 9 8 9 6 5 9 15 11 10 13 19 21 22 21 21
2 4 3 3 2 3 4 5 5 5 7 8 10 10 8 9 9 7 7 8 9 8 8 9 10 10 10 11 12 12 11 11 11 12 13 14 14 14 15 15 15 14 14 13 12 12 13 11 11 9 10 9 9 8 7 6 6 5 4 3 2 2 5 6 8 9 10 10 7 8 10 8 8 7 9 11 9 8 6 10 11 14 17 26 22
2 4 3 3 3 3 4 4 5 6 7 8 9 9 8 8 7 6 6 8 8 8 9 11 11 11 11 11 12 13 11 11 11 11 12 13 13 13 14 13 13 13 14 14 12 10 10 9 9 10 8 6 5 7 5 5 5 5 5 5 4 3 5 6 8 10 9 10 8 6 9 8 9 8 10 10 7 10 9 10 14 13 11 20 22
1 3 2 3 2 2 3 2 5 6 7 8 8 8 6 6 6 6 6 7 8 8 9 11 11 11 10 11 11 11 10 10 10 11 11 11 13 12 11 12 12 11 11 11 11 12 10 10 6 7 8 7 6 6 5 7 7 5 3 5 5 5 7 7 7 9 8 8 7 8 7 10 10 11 11 10 10 10 12 13 13 14 12 12 17
1 2 1 2 2 2 1 1 4 6 7 8 8 8 6 7 6 6 6 6 7 9 9 10 11 11 12 13 11 11 10 10 10 10 11 11 10 9 9 9 9 8 9 8 9 8 9 9 9 6 5 7 6 7 8 8 3 4 4 4 4 2 2 6 8 7 7 8 9 7 9 12 11 11 9 10 12 11 12 10 11 11 12 13 13
1 1 1 1 2 1 2 2 4 6 7 7 7 7 6 6 6 6 7 6 7 8 9 9 9 9 10 11 11 11 10 10 9 9 9 10 9 10 9 6 8 7 7 7 6 7 7 7 7 7 8 3 5 4 5 7 7 5 3 5 1 3 4 4 5 7 7 7 7 9 10 11 10 8 7 10 11 10 9 10 11 11 12 13 12
2 1 1 2 1 1 1 2 3 5 6 6 7 6 6 6 8 6 7 7 7 8 9 9 11 10 9 9 10 10 10 9 8 8 8 9 9 9 9 8 6 7 7 7 7 6 5 5 7 7 7 6 3 3 4 3 6 5 4 4 4 2 3 3 5 4 8 6 7 9 7 9 9 5 8 9 8 8 11 10 7 7 10 10 9
2 2 0 1 2 1 1 1 3 4 6 6 5 6 6 4 5 6 6 7 8 8 7 7 8 9 9 8 8 8 8 10 8 8 9 8 8 8 9 8 7 7 7 6 7 8 8 6 5 5 5 7 6 4 2 3 3 3 4 4 2 3 2 4 6 5 6 7 8 8 5 9 7 6 7 6 9 8 5 6 6 8 7 9 11
2 2 1 2 0 1 1 1 4 4 5 5 5 6 5 3 2 2 4 5 5 6 6 6 6 6 8 7 6 6 6 7 8 8 7 8 6 7 7 8 5 5 7 8 9 8 4 6 5 6 4 2 6 5 4 1 1 1 1 1 1 4 3 4 7 5 7 6 8 7 6 6 8 7 4 7 7 4 3 4 6 8 7 6 7
3 3 2 3 2 3 2 1 2 4 4 5 4 6 5 3 1 2 2 3 4 5 6 6 5 5 7 7 7 6 6 7 6 7 7 7 7 6 6 7 7 6 6 6 6 7 6 6 7 5 5 5 4 4 3 3 3 3 1 2 2 3 3 5 5 8 7 5 7 8 5 5 7 9 3 7 6 1 2 4 5 3 6 6 6
4 3 3 4 3 4 4 2 3 3 3 5 4 4 4 4 2 2 2 3 3 4 5 7 8 8 6 6 6 6 5 7 8 6 7 6 6 5 6 7 7 7 6 6 7 7 8 7 5 5 4 3 4 4 5 5 4 1 3 4 2 3 4 6 7 8 9 7 5 6 6 4 7 6 4 4 5 2 1 3 1 3 4 6 7
4 4 4 4 5 4 4 4 4 4 4 4 3 3 3 4 4 3 4 5 5 5 6 6 6 6 6 6 7 7 5 5 7 7 6 7 6 6 5 6 6 6 6 6 5 5 5 5 3 2 2 2 2 3 4 4 6 4 2 3 5 5 5 5 6 8 8 6 5 6 7 4 6 5 2 4 1 3 1 1 4 3 5 6 7
4 5 5 5 5 5 5 5 5 5 5 5 4 3 2 4 4 4 5 6 6 8 8 7 7 6 5 5 6 7 6 4 4 6 6 6 6 5 5 5 5 5 6 7 7 6 4 3 3 4 5 5 4 4 4 5 5 6 6 3 3 4 5 5 6 6 5 4 7 7 7 7 6 3 4 2 2 4 2 2 3 4 2 5 5
4 6 6 6 6 5 5 5 5 5 6 6 5 5 4 4 4 4 5 5 6 8 8 7 7 6 6 5 5 5 6 6 5 3 5 5 5 5 6 5 5 6 6 6 5 5 3 2 3 2 4 5 4 6 6 6 6 5 6 3 4 5 3 5 4 3 5 5 5 6 8 6 6 8 3 1 3 4 2 3 2 4 4 4 4
Wind_Direction
203 229 232 218 189 253 276 271 261 263 269 265 273 240 221 235 260 280 277 280 289 293 291 296 310 313 316 332 355 353 44 75 110 135 323 290 285 273 269 278 288 286 280 278 280 283 277 277 277 280 284 286 288 299 303 310 315 320 321 327 334 345 358 358 348 345 345 343 336 335 334 337 326 329 325 318 311 309 314 330 347 342 332 306 314
239 241 254 244 233 243 256 259 269 280 275 272 274 286 277 270 265 257 259 268 266 254 262 276 283 288 299 313 323 325 346 29 116 109 258 253 253 269 276 277 284 283 279 282 285 280 273 268 272 273 274 275 282 291 287 288 294 305 313 321 338 354 358 4 353 357 354 349 332 312 309 302 317 316 312 306 308 315 336 16 44 43 261 302 321
247 239 251 252 238 229 249 257 268 273 269 272 278 282 288 274 258 257 262 260 266 267 262 255 265 281 292 300 305 304 322 16 6 291 280 267 256 263 273 271 272 275 271 273 273 282 285 284 272 270 277 281 266 264 276 275 283 293 299 307 325 343 347 9 29 15 4 348 332 311 300 310 310 308 309 308 311 314 311 252 207 217 298 317 326
269 236 241 247 237 240 252 256 269 270 252 255 278 287 283 280 274 265 259 264 265 268 271 275 268 273 281 278 282 292 319 335 314 298 291 281 267 265 265 260 263 261 259 257 260 265 273 275 267 257 255 255 268 260 265 272 282 288 293 287 286 354 353 11 80 58 15 344 348 4 24 4 320 311 313 315 314 305 265 239 232 247 301 295 289
250 240 236 227 243 246 248 248 255 273 272 269 284 282 277 279 279 270 262 265 274 273 276 282 276 267 266 270 270 282 301 314 305 301 296 285 271 258 254 257 259 257 252 248 253 256 264 269 269 263 245 229 208 213 226 244 261 253 241 237 232 182 148 148 109 63 21 40 38 59 19 337 319 310 318 318 315 304 273 276 286 298 299 300 290
214 212 219 209 220 248 259 266 269 269 270 275 273 276 272 277 277 263 260 265 270 275 276 280 284 286 286 270 276 288 295 294 293 291 286 280 269 257 253 259 263 259 251 244 239 249 267 281 284 276 273 257 236 229 230 224 231 230 208 198 173 162 169 147 90 68 64 59 61 65 12 342 316 319 313 310 301 261 265 270 286 299 300 305 307
359 112 170 219 210 237 255 248 278 289 272 269 269 266 269 269 266 262 260 264 263 270 281 276 271 260 266 264 261 273 282 283 272 274 279 277 274 260 251 266 274 265 257 253 252 254 264 276 274 274 274 279 260 258 255 243 203 196 199 201 183 180 173 169 82 76 64 74 86 112 37 324 304 288 316 347 269 296 298 290 303 307 309 325 343
87 109 142 167 154 275 95 137 257 288 275 270 260 256 246 245 260 268 260 250 253 266 277 276 281 276 269 258 211 242 261 259 256 261 264 270 275 273 265 271 275 273 266 258 260 257 250 256 259 253 252 232 227 237 241 226 197 180 181 182 184 178 173 133 132 109 96 110 149 168 193 237 195 158 257 196 308 307 309 323 324 329 325 27 304
77 127 120 134 197 286 89 104 137 150 264 255 255 252 250 248 259 267 259 251 243 246 249 264 282 291 286 275 274 242 244 246 249 260 264 269 274 271 264 263 265 268 262 261 262 259 246 246 242 229 221 218 214 220 219 209 188 177 176 176 175 171 157 146 111 82 98 146 166 183 148 137 142 152 272 342 1 341 349 359 344 319 306 140 101
218 133 136 129 103 13 72 100 113 125 263 249 246 242 234 232 239 252 250 246 241 234 236 241 276 297 304 295 271 253 236 243 254 259 266 271 271 269 256 243 250 258 263 266 258 249 240 236 231 220 206 196 200 204 200 184 169 165 167 170 157 150 142 122 105 108 153 147 163 150 148 144 128 131 242 129 328 37 128 175 205 207 227 203 223
344 35 121 126 197 92 94 95 108 262 256 256 245 237 231 228 237 241 237 238 241 243 243 236 243 276 284 271 268 257 246 249 260 264 264 264 260 264 256 236 237 250 262 268 255 233 216 203 197 191 180 176 187 189 177 168 158 156 154 150 141 123 119 101 86 143 141 143 135 130 145 113 129 144 299 350 6 3 184 196 233 268 275 262 260
331 343 63 150 250 115 136 135 235 240 247 246 241 240 234 234 231 230 243 250 238 230 220 247 255 256 260 260 263 260 260 260 260 267 261 253 256 254 247 243 234 221 231 242 230 207 190 181 182 180 169 161 168 168 160 161 164 160 140 118 110 94 93 92 104 155 114 111 131 119 83 85 154 241 342 327 340 328 286 285 284 285 292 290 301
324 326 192 143 217 33 83 72 245 249 248 249 249 248 242 246 246 231 232 247 247 237 220 228 242 254 259 263 262 260 255 256 263 261 252 259 261 261 254 244 227 206 201 199 201 192 172 169 168 168 162 152 142 156 159 163 162 154 148 113 85 86 83 94 116 114 124 129 118 114 138 148 217 228 290 353 303 290 287 293 294 287 286 286 290
323 313 21 27 227 302 251 240 232 230 243 246 247 249 250 252 253 241 240 238 241 245 245 238 243 253 259 265 267 266 263 255 250 246 248 256 260 264 249 236 234 217 187 177 176 170 164 150 146 141 137 134 134 156 156 155 150 153 152 148 100 86 82 94 109 125 127 131 134 148 160 129 243 232 17 314 312 319 310 298 288 286 283 292 304
314 314 317 289 275 237 254 237 237 244 246 246 254 262 266 264 261 248 245 257 254 247 236 243 248 258 267 269 269 263 255 253 242 231 222 235 236 249 236 211 220 203 169 165 163 153 136 141 150 154 153 151 149 145 149 145 144 146 147 145 134 102 86 107 117 133 130 130 139 102 108 167 281 306 330 351 328 319 310 297 296 291 296 298 311
310 305 307 299 292 297 271 259 246 253 246 256 264 266 266 270 270 272 263 269 273 280 265 251 255 259 258 253 258 268 264 248 220 209 188 175 175 157 149 163 170 197 177 148 127 143 149 155 158 155 150 144 141 141 140 138 139 139 138 134 123 113 117 124 127 120 118 115 116 115 115 266 296 324 7 329 331 324 300 303 289 299 302 315 313
292 293 297 302 306 285 279 296 260 272 270 260 265 262 263 265 273 283 276 270 282 282 271 257 257 259 250 239 243 262 261 255 224 148 165 159 148 137 140 141 150 170 165 157 148 145 153 152 148 149 143 139 138 137 134 136 134 133 131 130 128 127 110 120 125 112 128 138 119 117 114 309 317 334 9 353 332 318 302 282 295 288 271 301 304
298 303 294 292 305 300 312 288 285 270 275 277 264 260 261 268 271 278 283 276 270 273 261 268 263 253 247 242 231 235 242 236 169 140 153 153 140 135 132 138 158 162 158 151 151 150 146 143 143 142 142 135 133 133 131 130 132 126 125 126 128 127 119 107 117 123 135 123 102 150 103 276 322 346 1 340 321 323 308 299 294 311 322 301 291
302 294 287 292 296 294 293 278 232 223 243 245 252 266 268 271 268 274 270 272 265 268 277 270 263 255 249 248 215 194 219 207 134 125 138 137 135 130 136 154 153 153 152 149 146 143 134 135 135 136 131 130 124 120 118 116 114 120 118 121 121 123 112 108 115 127 128 104 116 97 257 304 329 347 349 335 318 316 316 311 319 309 304 303 299
306 301 293 286 295 302 114 283 303 112 178 226 257 264 263 260 273 274 274 260 248 255 265 260 259 254 246 238 206 171 186 168 130 120 124 129 127 135 140 144 145 144 142 140 133 127 123 122 125 122 122 118 113 107 102 102 102 104 113 113 114 112 106 98 126 128 130 137 132 109 284 324 344 356 356 353 350 323 312 313 308 304 329 305 299
310 303 295 300 303 331 63 78 297 65 112 194 221 248 262 270 273 267 272 276 256 241 245 258 261 260 238 244 199 171 163 141 118 110 116 126 127 126 138 137 139 139 131 129 124 117 119 117 116 115 111 108 106 100 93 90 93 99 103 108 103 98 105 127 121 130 125 117 91 187 305 333 7 5 9 6 358 324 310 327 354 356 326 311 310
318 306 299 305 311 342 40 69 35 23 62 115 182 221 248 254 258 250 245 261 265 251 188 184 221 214 182 186 165 163 129 113 108 109 119 118 120 128 139 138 136 130 131 124 123 122 116 114 110 108 108 103 104 102 86 79 81 87 91 93 95 107 121 122 123 119 114 111 104 288 331 359 14 26 25 22 21 1 341 12 0 337 358 340 330
317 308 301 315 319 348 9 71 66 18 208 137 138 191 200 198 217 215 187 181 193 153 149 130 176 170 136 126 128 133 100 102 107 118 125 128 136 143 141 136 129 127 118 117 111 110 108 102 100 99 99 96 98 105 112 108 89 65 78 84 106 123 118 109 112 108 109 128 119 308 351 20 35 44 47 51 48 44 39 48 25 13 7 3 355
318 311 317 304 322 333 344 61 67 5 94 98 110 133 143 142 151 160 147 145 148 141 136 139 142 135 90 104 108 116 120 118 122 118 122 130 142 137 132 122 115 108 111 101 89 91 94 87 88 90 89 90 103 106 107 118 118 112 108 110 115 120 108 111 100 106 104 106 147 341 18 46 58 62 64 68 67 62 61 51 43 36 35 20 6
317 306 309 313 313 327 353 52 76 95 73 85 100 119 129 129 138 145 138 143 144 136 136 135 135 139 134 123 126 121 133 122 119 129 135 139 136 129 118 115 115 115 103 114 113 114 98 111 96 86 106 106 103 110 116 117 119 117 123 121 116 109 103 98 104 104 107 104 144 18 44 61 67 67 67 69 70 69 63 55 52 46 41 41 42
305 326 306 310 326 337 355 52 72 90 90 96 107 127 121 131 140 142 143 142 140 137 135 132 133 131 129 137 132 131 126 127 127 127 131 129 125 125 123 122 119 121 116 122 125 125 125 119 117 122 121 119 121 120 124 120 112 114 108 105 105 99 104 104 105 103 104 100 42 32 49 62 66 63 66 67 66 64 60 59 56 58 57 55 57
322 310 314 306 318 328 349 50 78 93 95 110 128 128 128 137 144 142 141 142 139 139 134 133 139 138 139 132 127 130 128 125 124 124 123 118 120 119 123 121 123 124 124 126 129 131 128 127 126 124 125 118 121 123 111 109 118 105 107 109 110 109 110 109 104 100 98 97 55 27 49 61 61 63 65 67 66 64 62 63 64 63 64 69 71
312 313 316 309 324 329 351 52 83 88 102 112 123 129 130 135 144 139 133 142 134 135 134 139 140 139 139 140 135 130 128 127 123 118 114 117 117 121 121 120 121 125 130 132 136 136 132 130 131 129 126 128 125 123 119 111 104 111 109 113 113 123 115 114 109 102 92 96 87 22 49 51 58 64 65 67 68 64 65 67 68 66 67 70 72
312 312 306 310 319 318 359 40 70 82 99 108 117 124 126 130 132 129 131 133 132 140 141 135 138 142 141 132 129 131 127 124 120 124 122 124 124 122 122 123 127 133 129 135 143 138 133 135 134 129 135 131 124 118 116 112 111 110 114 113 116 116 116 113 112 107 107 99 88 19 38 44 57 62 62 65 65 65 65 66 65 65 66 65 66
303 299 302 308 318 336 359 38 76 90 97 105 119 123 125 129 127 130 139 133 138 139 127 135 144 136 135 136 135 130 127 131 133 130 127 123 125 127 128 130 133 136 139 145 144 138 138 135 138 137 141 131 130 134 116 119 109 124 123 124 114 112 104 109 111 109 99 90 88 41 25 42 53 59 62 62 62 63 62 62 60 61 60 60 60
295 302 292 293 302 343 358 57 83 103 99 103 118 124 126 134 133 133 135 134 135 131 131 143 139 138 141 136 136 136 127 129 131 125 124 127 131 136 137 135 140 147 143 145 149 146 143 141 148 143 142 136 133 132 119 119 128 111 115 112 111 107 118 113 95 84 75 94 95 82 26 32 46 51 56 56 58 55 55 54 56 57 56 54 55
310 299 278 301 336 335 359 68 94 106 109 111 120 130 132 133 134 132 136 141 134 134 141 145 143 144 138 131 129 127 129 138 132 125 133 135 139 142 142 145 150 150 148 152 151 151 144 143 148 133 140 132 132 131 122 119 113 124 101 121 118 113 103 103 99 133 124 94 86 78 73 51 34 45 46 51 50 48 48 47 48 48 48 49 52
266 282 282 328 313 308 181 98 114 115 108 118 126 132 135 129 132 138 143 138 137 138 142 142 141 138 133 126 127 121 123 124 130 137 135 140 149 143 148 151 155 151 156 156 154 140 141 138 143 138 145 137 137 133 122 126 123 120 117 107 119 120 115 102 110 90 100 82 64 76 75 74 67 26 37 42 42 46 45 44 44 44 44 46 48
249 220 286 333 287 243 136 122 129 116 113 128 129 133 133 137 136 141 142 135 139 137 137 138 131 129 123 118 114 116 119 131 133 142 136 141 146 149 153 156 157 156 152 149 145 149 150 144 147 144 144 138 136 132 136 135 127 110 121 141 118 122 107 103 102 102 83 82 90 80 69 66 61 60 42 28 35 39 42 43 42 42 44 46 48
253 248 302 304 311 284 153 147 119 121 119 130 125 135 135 140 142 142 144 132 134 127 124 127 121 119 118 119 114 117 124 131 138 138 134 139 139 147 149 157 160 150 154 158 146 152 150 145 152 149 147 144 143 134 132 137 135 143 143 129 126 111 117 110 111 100 72 72 79 72 68 67 68 61 59 62 24 29 38 38 43 45 49 51 53
274 255 248 285 295 263 120 175 128 124 123 131 130 140 140 145 147 139 140 121 121 123 122 121 122 125 121 130 120 123 128 134 136 136 132 131 140 145 150 155 150 151 155 158 144 150 150 151 155 152 154 149 129 126 130 128 123 129 130 109 102 107 90 98 92 86 93 82 74 71 60 57 56 55 70 71 69 58 24 34 39 46 47 51 53
271 271 266 262 273 259 129 176 116 122 127 130 139 140 143 144 138 122 124 107 111 121 128 129 131 128 126 134 127 126 133 136 138 137 133 135 141 145 146 150 152 158 151 153 150 151 146 159 154 155 154 141 135 140 144 127 106 96 72 77 102 107 105 102 91 90 81 73 66 63 61 60 48 39 41 61 80 65 25 26 37 39 44 45 45
270 280 282 288 292 243 147 158 161 147 142 142 136 139 138 135 123 121 119 111 111 116 120 126 126 141 137 144 140 133 137 140 143 144 143 145 150 151 152 156 151 156 151 155 149 154 148 151 158 155 153 147 150 145 143 132 119 100 84 94 91 89 89 72 76 71 63 59 54 56 65 71 71 80 64 42 46 52 34 37 34 40 35 34 32
292 282 278 255 223 202 184 176 156 155 153 144 136 136 133 123 118 115 111 111 114 116 120 119 124 134 144 155 144 135 145 142 148 146 144 143 145 152 147 157 152 151 150 148 155 160 157 159 152 163 145 153 144 144 154 137 125 128 118 107 116 64 74 76 67 58 58 65 74 73 71 66 75 66 67 56 56 61 44 27 48 57 29 19 21
304 277 275 263 233 222 192 176 154 158 154 144 136 130 126 118 113 109 104 104 102 108 109 116 125 133 157 150 147 146 148 144 147 149 146 146 146 147 151 147 154 154 154 156 155 160 161 153 160 155 146 139 138 140 152 135 120 123 142 114 75 71 61 69 61 58 55 61 62 79 84 90 73 65 66 63 54 66 46 43 43 44 45 7 14
282 305 304 276 260 223 217 172 153 157 149 140 135 127 126 117 113 100 101 101 103 101 104 112 122 133 148 154 153 146 145 148 151 150 149 150 146 147 147 151 151 160 153 156 164 166 162 149 157 144 148 163 163 144 182 149 152 111 92 84 72 32 43 37 77 79 71 70 70 68 74 73 64 60 52 48 54 55 53 39 38 41 35 39 25
258 332 347 287 276 259 247 191 148 151 147 141 141 134 133 122 117 113 116 113 109 103 106 113 121 142 149 156 149 160 154 155 160 157 154 146 140 139 141 149 144 155 155 153 160 160 157 159 163 154 148 174 160 165 180 138 89 145 143 141 97 59 23 103 87 93 99 82 74 61 70 67 60 59 55 57 47 48 53 44 41 39 39 39 38
267 1 345 314 308 261 196 186 158 154 156 154 148 148 139 133 130 138 133 132 118 109 110 112 123 134 141 149 159 165 157 159 163 165 152 140 144 149 137 143 142 145 135 142 156 155 158 165 171 181 158 160 154 181 181 163 153 167 126 80 67 107 356 56 80 78 85 75 79 62 58 73 67 62 62 62 53 41 53 49 44 37 41 42 42
225 241 351 349 62 213 205 175 181 160 171 179 162 165 160 165 155 145 142 142 125 126 136 131 126 132 137 150 158 166 161 160 165 161 156 158 156 147 143 151 143 141 142 150 148 151 157 168 178 186 167 145 148 186 161 205 159 161 136 159 128 110 71 18 91 74 65 38 83 70 65 86 80 61 71 65 70 57 45 47 33 39 39 45 40
213 252 288 327 142 358 302 211 202 185 189 204 189 192 199 182 177 163 145 150 145 128 115 114 117 126 130 138 152 162 172 162 175 169 161 174 167 158 151 147 151 144 146 150 150 165 173 172 196 164 182 160 157 157 176 158 242 193 155 128 126 61 134 103 98 57 89 79 49 77 55 79 96 85 71 71 63 52 50 63 24 29 33 35 36
195 238 233 278 262 293 320 257 211 203 205 229 218 215 219 209 183 141 116 117 120 120 120 124 127 126 121 137 145 152 166 164 170 165 166 173 179 164 149 139 143 161 153 162 168 162 173 158 205 168 170 197 150 138 150 301 202 243 113 92 97 121 92 106 85 77 72 77 99 87 75 85 98 96 69 84 78 48 36 61 42 24 5 32 27
195 224 237 265 280 284 300 333 229 210 215 235 240 222 237 227 198 112 134 136 145 147 147 150 150 141 143 150 153 156 162 151 157 157 166 169 175 170 154 143 158 165 166 159 152 156 181 185 190 174 161 181 147 147 142 140 214 128 124 100 42 87 92 86 92 86 86 81 88 97 100 104 111 97 86 88 107 43 14 50 31 33 347 8 17
199 212 237 255 276 276 288 293 234 221 217 239 250 233 236 240 240 159 196 177 180 176 175 166 166 167 169 160 159 159 168 146 148 156 150 154 157 157 160 159 167 169 176 165 162 170 188 189 194 171 161 163 157 150 161 158 135 143 155 130 92 53 68 64 79 103 94 99 88 79 78 85 99 93 102 122 117 136 17 21 326 26 331 348 10
216 198 216 238 256 261 270 279 257 250 239 263 259 257 222 236 231 222 206 212 208 211 205 190 180 175 166 170 170 172 182 161 143 141 133 134 139 145 159 163 168 167 171 163 160 188 178 186 177 158 146 158 148 171 146 150 132 159 162 125 139 118 97 87 63 58 75 90 94 88 94 78 69 57 70 48 89 109 90 312 315 30 336 347 6
234 215 208 225 248 249 262 281 276 256 256 272 264 270 246 227 227 219 236 233 226 217 211 215 204 197 185 177 188 179 173 178 150 133 136 124 123 128 128 131 147 156 166 178 182 187 174 160 135 131 165 157 160 130 128 141 142 149 138 134 111 108 105 92 79 81 86 86 83 94 99 106 109 100 55 47 144 96 32 359 19 322 343 348 350
249 240 216 218 232 245 258 271 271 253 266 274 277 275 259 240 233 234 240 245 238 236 229 226 217 215 202 201 204 203 183 176 162 150 117 105 104 113 116 121 136 170 173 170 162 158 159 124 117 174 142 132 139 147 142 132 128 136 122 109 98 98 92 87 99 118 111 98 97 90 89 92 106 106 83 204 92 69 58 355 39 311 333 345 338